User: anonymous   Login
Location: Unspecified
(0.0000°N, 0.0000°E)
Time: 08:31:56
(UTC+00:00)
Language:

nSIGHT-1 - Orbit

View from above orbital plane
View from above orbital plane
View from above satellite
View from above satellite

Ground track
Ground track

The orbit data is extracted from the following two-line orbital elements,

1 42726U 98067MF  20023.68375972  .00055604  00000-0  22842-3 0  9996
2 42726  51.6295 259.4656 0001629 256.3269 103.7553 15.85426745152378
Epoch (UTC): 23 January 2020 16:24:36
Eccentricity: 0.0001629
inclination: 51.6295°
perigee height: 314 km
apogee height: 316 km
right ascension of ascending node: 259.4656°
argument of perigee: 256.3269°
revolutions per day: 15.85426745
mean anomaly at epoch: 103.7553°
orbit number at epoch: 15237

The dashed part of the orbit path shows where the satellite is in the earth's shadow,  

DLR